SCP
0 0 0 0 0 0 0 0 0 0 0 0 0 -0 0 0 0 0 -0 -0 -1 -1 -1 -0 -0 -1 -1 -0 -0 -0 -0 -0
0 -0 0 0 0 0 0 0 0 0 0 0 0 -0 -0 0 0 -0 0 -0 -2 -1 -1 -0 -0 -0 -0 -0 -0 -0 -0 -0
0 0 -0 0 0 0 0 0 0 0 0 0 -0 -0 0 0 0 0 0 0 -2 -1 -1 -1 -0 -0 -0 -0 -0 -0 -0 -0
0 0 0 0 0 0 0 0 0 -0 -0 0 -0 -0 -0 -0 -0 0 0 0 -1 -1 -1 -0 -0 -0 -0 -0 -0 -0 -0 -0
-0 -0 0 0 0 0 0 0 0 -0 -0 -0 0 0 0 -0 -0 0 0 1 1 -0 -0 -1 -0 -0 -0 0 0 0 -0 -0
0 0 0 0 0 0 0 0 0 -0 -0 0 0 0 0 0 0 0 0 1 1 1 -0 -0 -0 -0 -0 0 0 -0 -0 -1
0 0 0 0 0 0 0 0 0 0 0 0 0 0 0 0 0 0 0 0 2 1 0 -0 -0 0 0 -0 -0 -0 -1 -1
0 0 0 0 0 0 0 0 0 0 0 0 0 0 0 0 0 0 0 1 1 2 1 1 -0 0 1 1 0 -0 -0 -1
0 0 0 0 0 0 0 0 0 0 0 0 0 0 0 0 0 0 0 0 0 0 1 2 -0 -0 1 1 1 0 -0 -0
0 0 0 0 0 0 0 0 0 0 0 0 0 0 0 0 0 0 0 0 0 0 0 0 1 1 1 2 2 1 0 0
0 0 0 0 0 0 0 0 0 0 0 0 0 0 0 0 0 1 1 1 1 1 1 0 0 0 1 1 2 3 1 1
0 0 0 0 0 0 0 0 0 0 1 0 0 0 0 0 0 0 0 1 2 1 1 1 0 0 1 2 1 1 1 1
0 0 0 0 0 0 0 0 0 0 0 0 0 0 0 0 0 0 0 0 1 2 2 2 1 0 1 1 2 2 2 2
0 0 0 0 0 0 0 0 0 0 0 0 0 0 0 0 0 0 0 0 0 0 1 1 1 1 0 1 1 2 1 2
0 0 0 0 0 0 0 0 0 0 0 0 0 0 0 0 0 0 0 0 0 0 1 1 2 1 0 1 1 1 2 2
0 0 0 0 0 0 0 0 0 0 0 0 0 0 0 0 0 0 0 0 0 0 2 4 3 3 3 2 1 1 2 2
0 0 0 0 0 0 0 0 0 0 0 0 0 0 0 0 0 0 0 0 0 0 1 5 3 3 2 2 1 2 2 2
-0 0 0 0 0 0 0 0 0 0 0 0 0 0 0 0 0 0 0 0 0 0 1 4 1 1 1 1 1 2 2 3
0 -0 0 0 0 0 -0 0 0 0 0 0 0 0 0 0 0 0 0 0 0 0 1 1 2 1 1 1 2 2 2 2
Wind_Speed_500mb
56 41 40 39 40 24 6 13 6 7 14 26 34 30 18 29 76 102 106 105 108 112 113 115 110 105 104 102 97 92 87 83
42 50 42 36 24 26 18 18 20 20 25 29 30 40 26 21 49 84 95 110 111 113 111 113 110 106 103 101 98 90 87 84
32 49 56 24 24 30 12 12 13 12 20 21 43 44 41 25 46 71 86 104 109 112 113 112 107 106 103 102 100 95 89 85
53 30 48 32 30 30 21 23 11 9 23 12 13 53 43 38 53 64 90 99 106 116 114 110 108 105 102 102 104 99 89 83
36 32 40 57 45 36 16 11 18 19 21 9 23 30 55 40 58 51 85 88 101 108 106 103 109 108 102 101 101 98 94 88
22 31 13 24 48 42 32 20 19 31 9 20 22 20 19 35 41 70 62 87 94 98 99 102 106 106 103 98 97 94 93 90
28 25 19 31 51 45 40 32 29 24 16 16 2 14 14 33 35 45 54 81 90 95 97 103 105 104 99 97 96 92 89 88
10 18 21 33 37 51 41 38 31 20 18 17 15 42 42 50 48 50 39 65 68 77 92 106 111 105 99 99 96 93 92 88
9 8 10 10 34 34 40 35 38 33 17 13 12 21 30 50 49 45 44 46 39 35 43 85 96 104 99 98 97 95 95 94
9 10 3 14 16 17 33 26 28 24 18 29 18 25 37 56 54 38 42 38 36 29 22 20 20 75 100 99 100 92 93 97
6 1 7 8 26 27 4 23 49 34 9 21 57 74 56 68 68 62 51 42 31 27 23 21 22 29 48 72 99 97 92 93
8 8 6 36 52 73 30 21 43 42 48 37 46 26 10 55 55 51 47 41 28 15 13 8 13 8 31 63 68 85 98 91
10 6 12 39 55 42 17 9 39 55 54 62 40 27 51 57 57 48 37 32 19 7 8 24 14 10 4 27 53 64 65 69
3 8 8 41 37 36 8 36 44 53 61 60 61 62 61 57 55 54 45 28 20 12 12 16 23 28 19 19 19 35 58 69
13 10 11 22 41 52 55 41 50 48 49 48 50 49 48 51 48 42 44 37 25 28 22 14 18 22 26 29 34 36 39 43
23 24 34 51 40 55 70 71 46 41 41 39 39 39 38 39 38 41 43 42 33 36 34 37 24 9 21 33 34 39 42 47
28 20 58 32 54 59 69 69 65 63 47 30 30 23 29 29 36 35 40 37 37 40 41 33 31 19 17 27 36 42 39 47
17 64 50 75 86 76 70 72 60 59 57 51 36 29 25 24 31 34 35 39 36 36 39 34 38 39 39 34 29 30 28 36
66 74 86 95 86 88 75 83 71 54 47 50 44 38 37 38 40 45 42 37 44 46 45 35 34 37 39 39 27 31 32 31
Wind_Direction_500mb
227 212 218 204 217 216 260 211 247 206 252 261 259 269 210 211 178 179 190 189 188 189 192 197 197 205 211 217 219 220 222 222
220 229 230 214 175 215 213 201 221 234 218 231 234 246 241 212 197 187 181 182 183 187 191 198 200 205 210 219 222 223 223 224
240 209 219 200 195 202 186 193 183 208 238 226 223 222 231 218 195 194 177 177 180 185 192 200 201 203 209 216 223 224 225 225
240 253 211 225 212 197 206 228 223 199 258 317 265 209 209 217 218 192 181 177 178 184 192 196 197 202 208 215 220 226 228 228
248 253 265 214 202 213 182 149 218 227 259 265 313 199 194 196 204 181 175 175 175 180 187 191 197 201 208 213 219 226 228 229
256 231 224 220 204 201 204 202 213 240 234 300 330 156 143 163 170 198 166 170 175 179 184 192 198 200 207 213 218 223 226 229
265 270 278 269 201 195 206 210 198 233 184 216 332 48 132 163 157 179 173 175 173 182 185 191 197 203 210 214 215 218 226 230
276 288 277 285 244 194 200 212 224 246 224 208 168 96 78 88 102 93 114 175 176 187 186 190 199 205 209 212 214 216 221 228
308 316 292 301 251 197 203 197 211 223 211 152 137 130 129 112 99 92 87 89 107 120 174 196 198 205 208 214 216 217 222 225
287 43 135 256 344 326 209 196 203 225 167 156 154 77 98 120 115 103 88 82 77 86 105 139 170 210 212 213 214 218 223 226
299 205 307 270 4 337 70 46 10 3 251 160 104 69 40 57 71 71 73 73 75 70 71 79 175 201 214 216 219 217 221 229
348 287 184 356 343 330 306 49 12 15 30 117 94 80 38 51 54 61 65 62 68 65 39 70 78 110 213 214 213 218 221 227
297 312 360 341 342 6 60 39 24 20 32 49 64 59 48 51 48 42 41 56 68 91 16 0 311 340 133 201 212 222 227 230
321 338 360 337 358 48 15 42 40 27 26 40 40 38 35 36 36 36 32 37 41 28 322 321 326 302 293 269 222 225 235 238
342 344 326 29 314 8 16 22 16 21 18 27 30 26 21 22 25 25 23 23 25 17 357 341 320 290 277 276 271 274 246 237
353 340 333 327 357 354 353 351 346 346 355 359 8 10 13 17 13 14 13 11 22 22 28 7 349 299 252 252 268 273 263 249
301 310 342 308 315 329 327 332 337 347 331 319 325 354 359 354 358 353 1 4 13 11 5 350 319 306 283 272 274 274 272 257
285 299 289 281 292 300 306 306 314 323 329 342 341 338 340 342 334 337 347 356 355 349 351 351 302 303 292 284 268 258 261 258
275 282 279 276 281 284 287 286 286 301 310 324 322 331 326 329 331 336 341 340 335 326 318 322 298 296 306 306 279 255 250 247
Wind_Speed_850mb
56 41 40 39 40 24 6 13 6 7 14 26 34 30 18 29 76 102 106 105 108 112 113 115 110 105 104 102 97 92 87 83
42 50 42 36 24 26 18 18 20 20 25 29 30 40 26 21 49 84 95 110 111 113 111 113 110 106 103 101 98 90 87 84
32 49 56 24 24 30 12 12 13 12 20 21 43 44 41 25 46 71 86 104 109 112 113 112 107 106 103 102 100 95 89 85
53 30 48 32 30 30 21 23 11 9 23 12 13 53 43 38 53 64 90 99 106 116 114 110 108 105 102 102 104 99 89 83
36 32 40 57 45 36 16 11 18 19 21 9 23 30 55 40 58 51 85 88 101 108 106 103 109 108 102 101 101 98 94 88
22 31 13 24 48 42 32 20 19 31 9 20 22 20 19 35 41 70 62 87 94 98 99 102 106 106 103 98 97 94 93 90
28 25 19 31 51 45 40 32 29 24 16 16 2 14 14 33 35 45 54 81 90 95 97 103 105 104 99 97 96 92 89 88
10 18 21 33 37 51 41 38 31 20 18 17 15 42 42 50 48 50 39 65 68 77 92 106 111 105 99 99 96 93 92 88
9 8 10 10 34 34 40 35 38 33 17 13 12 21 30 50 49 45 44 46 39 35 43 85 96 104 99 98 97 95 95 94
9 10 3 14 16 17 33 26 28 24 18 29 18 25 37 56 54 38 42 38 36 29 22 20 20 75 100 99 100 92 93 97
6 1 7 8 26 27 4 23 49 34 9 21 57 74 56 68 68 62 51 42 31 27 23 21 22 29 48 72 99 97 92 93
8 8 6 36 52 73 30 21 43 42 48 37 46 26 10 55 55 51 47 41 28 15 13 8 13 8 31 63 68 85 98 91
10 6 12 39 55 42 17 9 39 55 54 62 40 27 51 57 57 48 37 32 19 7 8 24 14 10 4 27 53 64 65 69
3 8 8 41 37 36 8 36 44 53 61 60 61 62 61 57 55 54 45 28 20 12 12 16 23 28 19 19 19 35 58 69
13 10 11 22 41 52 55 41 50 48 49 48 50 49 48 51 48 42 44 37 25 28 22 14 18 22 26 29 34 36 39 43
23 24 34 51 40 55 70 71 46 41 41 39 39 39 38 39 38 41 43 42 33 36 34 37 24 9 21 33 34 39 42 47
28 20 58 32 54 59 69 69 65 63 47 30 30 23 29 29 36 35 40 37 37 40 41 33 31 19 17 27 36 42 39 47
17 64 50 75 86 76 70 72 60 59 57 51 36 29 25 24 31 34 35 39 36 36 39 34 38 39 39 34 29 30 28 36
66 74 86 95 86 88 75 83 71 54 47 50 44 38 37 38 40 45 42 37 44 46 45 35 34 37 39 39 27 31 32 31
Wind_Direction_850mb
227 212 218 204 217 216 260 211 247 206 252 261 259 269 210 211 178 179 190 189 188 189 192 197 197 205 211 217 219 220 222 222
220 229 230 214 175 215 213 201 221 234 218 231 234 246 241 212 197 187 181 182 183 187 191 198 200 205 210 219 222 223 223 224
240 209 219 200 195 202 186 193 183 208 238 226 223 222 231 218 195 194 177 177 180 185 192 200 201 203 209 216 223 224 225 225
240 253 211 225 212 197 206 228 223 199 258 317 265 209 209 217 218 192 181 177 178 184 192 196 197 202 208 215 220 226 228 228
248 253 265 214 202 213 182 149 218 227 259 265 313 199 194 196 204 181 175 175 175 180 187 191 197 201 208 213 219 226 228 229
256 231 224 220 204 201 204 202 213 240 234 300 330 156 143 163 170 198 166 170 175 179 184 192 198 200 207 213 218 223 226 229
265 270 278 269 201 195 206 210 198 233 184 216 332 48 132 163 157 179 173 175 173 182 185 191 197 203 210 214 215 218 226 230
276 288 277 285 244 194 200 212 224 246 224 208 168 96 78 88 102 93 114 175 176 187 186 190 199 205 209 212 214 216 221 228
308 316 292 301 251 197 203 197 211 223 211 152 137 130 129 112 99 92 87 89 107 120 174 196 198 205 208 214 216 217 222 225
287 43 135 256 344 326 209 196 203 225 167 156 154 77 98 120 115 103 88 82 77 86 105 139 170 210 212 213 214 218 223 226
299 205 307 270 4 337 70 46 10 3 251 160 104 69 40 57 71 71 73 73 75 70 71 79 175 201 214 216 219 217 221 229
348 287 184 356 343 330 306 49 12 15 30 117 94 80 38 51 54 61 65 62 68 65 39 70 78 110 213 214 213 218 221 227
297 312 360 341 342 6 60 39 24 20 32 49 64 59 48 51 48 42 41 56 68 91 16 0 311 340 133 201 212 222 227 230
321 338 360 337 358 48 15 42 40 27 26 40 40 38 35 36 36 36 32 37 41 28 322 321 326 302 293 269 222 225 235 238
342 344 326 29 314 8 16 22 16 21 18 27 30 26 21 22 25 25 23 23 25 17 357 341 320 290 277 276 271 274 246 237
353 340 333 327 357 354 353 351 346 346 355 359 8 10 13 17 13 14 13 11 22 22 28 7 349 299 252 252 268 273 263 249
301 310 342 308 315 329 327 332 337 347 331 319 325 354 359 354 358 353 1 4 13 11 5 350 319 306 283 272 274 274 272 257
285 299 289 281 292 300 306 306 314 323 329 342 341 338 340 342 334 337 347 356 355 349 351 351 302 303 292 284 268 258 261 258
275 282 279 276 281 284 287 286 286 301 310 324 322 331 326 329 331 336 341 340 335 326 318 322 298 296 306 306 279 255 250 247